"Time","Value","Approval","myLocation"
"2023-05-07 00:00",2.76352680026426,"Approved","OW502"
"2023-05-07 01:00",2.76303129266681,"Approved","OW502"
"2023-05-07 02:00",2.76233578506937,"Approved","OW502"
"2023-05-07 03:00",2.76014027747192,"Approved","OW502"
"2023-05-07 04:00",2.75984476987448,"Approved","OW502"
"2023-05-07 05:00",2.76064926227703,"Approved","OW502"
"2023-05-07 06:00",2.75835375467959,"Approved","OW502"
"2023-05-07 07:00",2.75595824708214,"Approved","OW502"
"2023-05-07 08:00",2.7540627394847,"Approved","OW502"
"2023-05-07 09:00",2.75276723188725,"Approved","OW502"
"2023-05-07 10:00",2.7527717242898,"Approved","OW502"
"2023-05-07 11:00",2.75307621669236,"Approved","OW502"
"2023-05-07 12:00",2.75178070909491,"Approved","OW502"
"2023-05-07 13:00",2.75148520149747,"Approved","OW502"
"2023-05-07 14:00",2.75038969390002,"Approved","OW502"
"2023-05-07 15:00",2.74969418630258,"Approved","OW502"
"2023-05-07 16:00",2.74979867870513,"Approved","OW502"
"2023-05-07 17:00",2.74750317110769,"Approved","OW502"
"2023-05-07 18:00",2.74760766351024,"Approved","OW502"
"2023-05-07 19:00",2.74491215591279,"Approved","OW502"
"2023-05-07 20:00",2.74421664831535,"Approved","OW502"
"2023-05-07 21:00",2.7446211407179,"Approved","OW502"
"2023-05-07 22:00",2.74432563312046,"Approved","OW502"
"2023-05-07 23:00",2.74413012552301,"Approved","OW502"
"2023-05-08 00:00",2.74433461792557,"Approved","OW502"
"2023-05-08 01:00",2.74423911032812,"Approved","OW502"
"2023-05-08 02:00",2.74314360273068,"Approved","OW502"
"2023-05-08 03:00",2.74304809513323,"Approved","OW502"
"2023-05-08 04:00",2.74235258753578,"Approved","OW502"
"2023-05-08 05:00",2.74165707993834,"Approved","OW502"
"2023-05-08 06:00",2.74216157234089,"Approved","OW502"
"2023-05-08 07:00",2.74096606474345,"Approved","OW502"
"2023-05-08 08:00",2.740970557146,"Approved","OW502"
"2023-05-08 09:00",2.74147504954856,"Approved","OW502"
"2023-05-08 10:00",2.74247954195111,"Approved","OW502"
"2023-05-08 11:00",2.74308403435367,"Approved","OW502"
"2023-05-08 12:00",2.74098852675622,"Approved","OW502"
"2023-05-08 13:00",2.73849301915878,"Approved","OW502"
"2023-05-08 14:00",2.74009751156133,"Approved","OW502"
"2023-05-08 15:00",2.73810200396388,"Approved","OW502"
"2023-05-08 16:00",2.73820649636644,"Approved","OW502"
"2023-05-08 17:00",2.73641098876899,"Approved","OW502"
"2023-05-08 18:00",2.73691548117155,"Approved","OW502"
"2023-05-08 19:00",2.7374199735741,"Approved","OW502"
"2023-05-08 20:00",2.73792446597666,"Approved","OW502"
"2023-05-08 21:00",2.73832895837921,"Approved","OW502"
"2023-05-08 22:00",2.73843345078177,"Approved","OW502"
"2023-05-08 23:00",2.73723794318432,"Approved","OW502"
"2023-05-09 00:00",2.73834243558688,"Approved","OW502"
"2023-05-09 01:00",2.73844692798943,"Approved","OW502"
"2023-05-09 02:00",2.73915142039198,"Approved","OW502"
"2023-05-09 03:00",2.73885591279454,"Approved","OW502"
"2023-05-09 04:00",2.73916040519709,"Approved","OW502"
"2023-05-09 05:00",2.73976489759965,"Approved","OW502"
"2023-05-09 06:00",2.7405693900022,"Approved","OW502"
"2023-05-09 07:00",2.73947388240476,"Approved","OW502"
"2023-05-09 08:00",2.74057837480731,"Approved","OW502"
"2023-05-09 09:00",2.74228286720987,"Approved","OW502"
"2023-05-09 10:00",2.74268735961242,"Approved","OW502"
"2023-05-09 11:00",2.74239185201497,"Approved","OW502"
"2023-05-09 12:00",2.73979634441753,"Approved","OW502"
"2023-05-09 13:00",2.74140083682008,"Approved","OW502"
"2023-05-09 14:00",2.73940532922264,"Approved","OW502"
"2023-05-09 15:00",2.73750982162519,"Approved","OW502"
"2023-05-09 16:00",2.74011431402775,"Approved","OW502"
"2023-05-09 17:00",2.7376188064303,"Approved","OW502"
"2023-05-09 18:00",2.74102329883286,"Approved","OW502"
"2023-05-09 19:00",2.73832779123541,"Approved","OW502"
"2023-05-09 20:00",2.74133228363796,"Approved","OW502"
"2023-05-09 21:00",2.74173677604052,"Approved","OW502"
"2023-05-09 22:00",2.74314126844307,"Approved","OW502"
"2023-05-09 23:00",2.74244576084563,"Approved","OW502"
"2023-05-10 00:00",2.74315025324818,"Approved","OW502"
"2023-05-10 01:00",2.74335474565074,"Approved","OW502"
"2023-05-10 02:00",2.74475923805329,"Approved","OW502"
"2023-05-10 03:00",2.74496373045585,"Approved","OW502"
"2023-05-10 04:00",2.7437682228584,"Approved","OW502"
"2023-05-10 05:00",2.74587271526096,"Approved","OW502"
"2023-05-10 06:00",2.74597720766351,"Approved","OW502"
"2023-05-10 07:00",2.74588170006606,"Approved","OW502"
"2023-05-10 08:00",2.74568619246862,"Approved","OW502"
"2023-05-10 09:00",2.74859068487117,"Approved","OW502"
"2023-05-10 10:00",2.74869517727373,"Approved","OW502"
"2023-05-10 11:00",2.74699966967628,"Approved","OW502"
"2023-05-10 12:00",2.74580416207884,"Approved","OW502"
"2023-05-10 13:00",2.74720865448139,"Approved","OW502"
"2023-05-10 14:00",2.74671314688395,"Approved","OW502"
"2023-05-10 15:00",2.7469176392865,"Approved","OW502"
"2023-05-10 16:00",2.74572213168906,"Approved","OW502"
"2023-05-10 17:00",2.74552662409161,"Approved","OW502"
"2023-05-10 18:00",2.74443111649416,"Approved","OW502"
"2023-05-10 19:00",2.74513560889672,"Approved","OW502"
"2023-05-10 20:00",2.74664010129927,"Approved","OW502"
"2023-05-10 21:00",2.74654459370183,"Approved","OW502"
"2023-05-10 22:00",2.74804908610438,"Approved","OW502"
"2023-05-10 23:00",2.74745357850694,"Approved","OW502"
"2023-05-11 00:00",2.74855807090949,"Approved","OW502"
"2023-05-11 01:00",2.74826256331205,"Approved","OW502"
"2023-05-11 02:00",2.7491670557146,"Approved","OW502"
"2023-05-11 03:00",2.74807154811716,"Approved","OW502"
"2023-05-11 04:00",2.74877604051971,"Approved","OW502"
"2023-05-11 05:00",2.74998053292226,"Approved","OW502"
"2023-05-11 06:00",2.75188502532482,"Approved","OW502"
"2023-05-11 07:00",2.75088951772737,"Approved","OW502"
"2023-05-11 08:00",2.75049401012993,"Approved","OW502"
"2023-05-11 09:00",2.75329850253248,"Approved","OW502"
"2023-05-11 10:00",2.75320299493504,"Approved","OW502"
"2023-05-11 11:00",2.75110748733759,"Approved","OW502"
"2023-05-11 12:00",2.75061197974015,"Approved","OW502"
"2023-05-11 13:00",2.7480164721427,"Approved","OW502"
"2023-05-11 14:00",2.74682096454525,"Approved","OW502"
"2023-05-11 15:00",2.74932545694781,"Approved","OW502"
"2023-05-11 16:00",2.75012994935036,"Approved","OW502"
"2023-05-11 17:00",2.74723444175292,"Approved","OW502"
"2023-05-11 18:00",2.74743893415547,"Approved","OW502"
"2023-05-11 19:00",2.75084342655803,"Approved","OW502"
"2023-05-11 20:00",2.75204791896058,"Approved","OW502"
"2023-05-11 21:00",2.75445241136314,"Approved","OW502"
"2023-05-11 22:00",2.75445690376569,"Approved","OW502"
"2023-05-11 23:00",2.75416139616824,"Approved","OW502"
"2023-05-12 00:00",2.7569658885708,"Approved","OW502"
"2023-05-12 01:00",2.75697038097335,"Approved","OW502"
"2023-05-12 02:00",2.75757487337591,"Approved","OW502"
"2023-05-12 03:00",2.75907936577846,"Approved","OW502"
"2023-05-12 04:00",2.75858385818102,"Approved","OW502"
"2023-05-12 05:00",2.76018835058357,"Approved","OW502"
"2023-05-12 06:00",2.76239284298613,"Approved","OW502"
"2023-05-12 07:00",2.76259733538868,"Approved","OW502"
"2023-05-12 08:00",2.76550182779124,"Approved","OW502"
"2023-05-12 09:00",2.76400632019379,"Approved","OW502"
"2023-05-12 10:00",2.76271081259634,"Approved","OW502"
"2023-05-12 11:00",2.7610153049989,"Approved","OW502"
"2023-05-12 12:00",2.75951979740145,"Approved","OW502"
"2023-05-12 13:00",2.75972428980401,"Approved","OW502"
"2023-05-12 14:00",2.75842878220656,"Approved","OW502"
"2023-05-12 15:00",2.75753327460912,"Approved","OW502"
"2023-05-12 16:00",2.75813776701167,"Approved","OW502"
"2023-05-12 17:00",2.75654225941423,"Approved","OW502"
"2023-05-12 18:00",2.75744675181678,"Approved","OW502"
"2023-05-12 19:00",2.75955124421934,"Approved","OW502"
"2023-05-12 20:00",2.76255573662189,"Approved","OW502"
"2023-05-12 21:00",2.76476022902444,"Approved","OW502"
"2023-05-12 22:00",2.766964721427,"Approved","OW502"
"2023-05-12 23:00",2.76736921382955,"Approved","OW502"
"2023-05-13 00:00",2.76777370623211,"Approved","OW502"
"2023-05-13 01:00",2.76877819863466,"Approved","OW502"
"2023-05-13 02:00",2.76868269103722,"Approved","OW502"
"2023-05-13 03:00",2.77008718343977,"Approved","OW502"
"2023-05-13 04:00",2.77009167584233,"Approved","OW502"
"2023-05-13 05:00",2.77049616824488,"Approved","OW502"
"2023-05-13 06:00",2.77180066064743,"Approved","OW502"
"2023-05-13 07:00",2.77170515304999,"Approved","OW502"
"2023-05-13 08:00",2.77270964545254,"Approved","OW502"
"2023-05-13 09:00",2.7732141378551,"Approved","OW502"
"2023-05-13 10:00",2.77231863025765,"Approved","OW502"
"2023-05-13 11:00",2.76942312266021,"Approved","OW502"
"2023-05-13 12:00",2.76822761506276,"Approved","OW502"
"2023-05-13 13:00",2.76593210746532,"Approved","OW502"
"2023-05-13 14:00",2.76423659986787,"Approved","OW502"
"2023-05-13 15:00",2.76444109227042,"Approved","OW502"
"2023-05-13 16:00",2.76414558467298,"Approved","OW502"
"2023-05-13 17:00",2.76455007707553,"Approved","OW502"
"2023-05-13 18:00",2.76285456947809,"Approved","OW502"
"2023-05-13 19:00",2.76615906188064,"Approved","OW502"
"2023-05-13 20:00",2.7663635542832,"Approved","OW502"
"2023-05-13 21:00",2.76786804668575,"Approved","OW502"
"2023-05-13 22:00",2.77247253908831,"Approved","OW502"
"2023-05-13 23:00",2.77217703149086,"Approved","OW502"
"2023-05-14 00:00",2.77258152389342,"Approved","OW502"
"2023-05-14 01:00",2.77258601629597,"Approved","OW502"
"2023-05-14 02:00",2.77409050869852,"Approved","OW502"
"2023-05-14 03:00",2.77369500110108,"Approved","OW502"
"2023-05-14 04:00",2.77469949350363,"Approved","OW502"
"2023-05-14 05:00",2.77550398590619,"Approved","OW502"
"2023-05-14 06:00",2.77530847830874,"Approved","OW502"
"2023-05-14 07:00",2.7759129707113,"Approved","OW502"
"2023-05-14 08:00",2.77641746311385,"Approved","OW502"
"2023-05-14 09:00",2.77652195551641,"Approved","OW502"
"2023-05-14 10:00",2.77512644791896,"Approved","OW502"
"2023-05-14 11:00",2.77273094032152,"Approved","OW502"
"2023-05-14 12:00",2.76973543272407,"Approved","OW502"
"2023-05-14 13:00",2.76643992512662,"Approved","OW502"
"2023-05-14 14:00",2.76554441752918,"Approved","OW502"
"2023-05-14 15:00",2.76354890993173,"Approved","OW502"
"2023-05-14 16:00",2.76345340233429,"Approved","OW502"
"2023-05-14 17:00",2.76145789473684,"Approved","OW502"
"2023-05-14 18:00",2.7630623871394,"Approved","OW502"
"2023-05-14 19:00",2.76346687954195,"Approved","OW502"
"2023-05-14 20:00",2.76407137194451,"Approved","OW502"
"2023-05-14 21:00",2.76787586434706,"Approved","OW502"
"2023-05-14 22:00",2.76908035674961,"Approved","OW502"
"2023-05-14 23:00",2.77048484915217,"Approved","OW502"
"2023-05-15 00:00",2.77238934155472,"Approved","OW502"
"2023-05-15 01:00",2.77249383395728,"Approved","OW502"
"2023-05-15 02:00",2.77319832635983,"Approved","OW502"
"2023-05-15 03:00",2.77360281876239,"Approved","OW502"
"2023-05-15 04:00",2.77290731116494,"Approved","OW502"
"2023-05-15 05:00",2.7744118035675,"Approved","OW502"
"2023-05-15 06:00",2.77421629597005,"Approved","OW502"
"2023-05-15 07:00",2.77472078837261,"Approved","OW502"
"2023-05-15 08:00",2.77362528077516,"Approved","OW502"
"2023-05-15 09:00",2.77492977317771,"Approved","OW502"
"2023-05-15 10:00",2.77423426558027,"Approved","OW502"
"2023-05-15 11:00",2.77083875798282,"Approved","OW502"
"2023-05-15 12:00",2.76454325038538,"Approved","OW502"
"2023-05-15 13:00",2.76584774278793,"Approved","OW502"
"2023-05-15 14:00",2.76535223519049,"Approved","OW502"
"2023-05-15 15:00",2.76355672759304,"Approved","OW502"
"2023-05-15 16:00",2.7620612199956,"Approved","OW502"
"2023-05-15 17:00",2.76276571239815,"Approved","OW502"
"2023-05-15 18:00",2.7610702048007,"Approved","OW502"
"2023-05-15 19:00",2.76347469720326,"Approved","OW502"
"2023-05-15 20:00",2.76477918960581,"Approved","OW502"
"2023-05-15 21:00",2.76948368200837,"Approved","OW502"
"2023-05-15 22:00",2.77108817441092,"Approved","OW502"
"2023-05-15 23:00",2.77359266681348,"Approved","OW502"
"2023-05-16 00:00",2.77409715921603,"Approved","OW502"
"2023-05-16 01:00",2.77500165161859,"Approved","OW502"
"2023-05-16 02:00",2.77460614402114,"Approved","OW502"
"2023-05-16 03:00",2.7767106364237,"Approved","OW502"
"2023-05-16 04:00",2.77631512882625,"Approved","OW502"
"2023-05-16 05:00",2.7769196212288,"Approved","OW502"
"2023-05-16 06:00",2.77872411363136,"Approved","OW502"
"2023-05-16 07:00",2.77892860603391,"Approved","OW502"
"2023-05-16 08:00",2.78043309843647,"Approved","OW502"
"2023-05-16 09:00",2.78043759083902,"Approved","OW502"
"2023-05-16 10:00",2.77994208324158,"Approved","OW502"
"2023-05-16 11:00",2.77844657564413,"Approved","OW502"
"2023-05-16 12:00",2.77635106804669,"Approved","OW502"
"2023-05-16 13:00",2.77385556044924,"Approved","OW502"
"2023-05-16 14:00",2.77316005285179,"Approved","OW502"
"2023-05-16 15:00",2.77316454525435,"Approved","OW502"
"2023-05-16 16:00",2.7726690376569,"Approved","OW502"
"2023-05-16 17:00",2.76717353005946,"Approved","OW502"
"2023-05-16 18:00",2.77117802246201,"Approved","OW502"
"2023-05-16 19:00",2.77368251486457,"Approved","OW502"
"2023-05-16 20:00",2.77548700726712,"Approved","OW502"
"2023-05-16 21:00",2.77789149966968,"Approved","OW502"
"2023-05-16 22:00",2.77909599207223,"Approved","OW502"
"2023-05-16 23:00",2.78120048447479,"Approved","OW502"
"2023-05-17 00:00",2.78300497687734,"Approved","OW502"
"2023-05-17 01:00",2.78390946927989,"Approved","OW502"
"2023-05-17 02:00",2.78541396168245,"Approved","OW502"
"2023-05-17 03:00",2.785818454085,"Approved","OW502"
"2023-05-17 04:00",2.78702294648756,"Approved","OW502"
"2023-05-17 05:00",2.78632743889011,"Approved","OW502"
"2023-05-17 06:00",2.78823193129267,"Approved","OW502"
"2023-05-17 07:00",2.78773642369522,"Approved","OW502"
"2023-05-17 08:00",2.78674091609778,"Approved","OW502"
"2023-05-17 09:00",2.78714540850033,"Approved","OW502"
"2023-05-17 10:00",2.78844990090288,"Approved","OW502"
"2023-05-17 11:00",2.78755439330544,"Approved","OW502"
"2023-05-17 12:00",2.78505888570799,"Approved","OW502"
"2023-05-17 13:00",2.78216337811055,"Approved","OW502"
"2023-05-17 14:00",2.7827678705131,"Approved","OW502"
"2023-05-17 15:00",2.78117236291566,"Approved","OW502"
"2023-05-17 16:00",2.78357685531821,"Approved","OW502"
"2023-05-17 17:00",2.77968134772077,"Approved","OW502"
"2023-05-17 18:00",2.78088584012332,"Approved","OW502"
"2023-05-17 19:00",2.78279033252588,"Approved","OW502"
"2023-05-17 20:00",2.78339482492843,"Approved","OW502"
"2023-05-17 21:00",2.78399931733098,"Approved","OW502"
"2023-05-17 22:00",2.78820380973354,"Approved","OW502"
"2023-05-17 23:00",2.78960830213609,"Approved","OW502"
"2023-05-18 00:00",2.78981279453865,"Approved","OW502"
"2023-05-18 01:00",2.7911172869412,"Approved","OW502"
"2023-05-18 02:00",2.79112177934376,"Approved","OW502"
"2023-05-18 03:00",2.78972627174631,"Approved","OW502"
"2023-05-18 04:00",2.79193076414887,"Approved","OW502"
"2023-05-18 05:00",2.79243525655142,"Approved","OW502"
"2023-05-18 06:00",2.79173974895398,"Approved","OW502"
"2023-05-18 07:00",2.79274424135653,"Approved","OW502"
"2023-05-18 08:00",2.79194873375908,"Approved","OW502"
"2023-05-18 09:00",2.79265322616164,"Approved","OW502"
"2023-05-18 10:00",2.79365771856419,"Approved","OW502"
"2023-05-18 11:00",2.78976221096675,"Approved","OW502"
"2023-05-18 12:00",2.7891667033693,"Approved","OW502"
"2023-05-18 13:00",2.78827119577186,"Approved","OW502"
"2023-05-18 14:00",2.78687568817441,"Approved","OW502"
"2023-05-18 15:00",2.78788018057697,"Approved","OW502"
"2023-05-18 16:00",2.78658467297952,"Approved","OW502"
"2023-05-18 17:00",2.78878916538207,"Approved","OW502"
"2023-05-18 18:00",2.78679365778463,"Approved","OW502"
"2023-05-18 19:00",2.79139815018718,"Approved","OW502"
"2023-05-18 20:00",2.79300264258974,"Approved","OW502"
"2023-05-18 21:00",2.79180713499229,"Approved","OW502"
"2023-05-18 22:00",2.79061162739485,"Approved","OW502"
"2023-05-18 23:00",2.7936161197974,"Approved","OW502"
"2023-05-19 00:00",2.79492061219996,"Approved","OW502"
"2023-05-19 01:00",2.79542510460251,"Approved","OW502"
"2023-05-19 02:00",2.79472959700507,"Approved","OW502"
"2023-05-19 03:00",2.79523408940762,"Approved","OW502"
"2023-05-19 04:00",2.79453858181017,"Approved","OW502"
"2023-05-19 05:00",2.79534307421273,"Approved","OW502"
"2023-05-19 06:00",2.79524756661528,"Approved","OW502"
"2023-05-19 07:00",2.79465205901784,"Approved","OW502"
"2023-05-19 08:00",2.79365655142039,"Approved","OW502"
"2023-05-19 09:00",2.79506104382295,"Approved","OW502"
"2023-05-19 10:00",2.7953655362255,"Approved","OW502"
"2023-05-19 11:00",2.79227002862806,"Approved","OW502"
"2023-05-19 12:00",2.79027452103061,"Approved","OW502"
"2023-05-19 13:00",2.79237901343316,"Approved","OW502"
"2023-05-19 14:00",2.79038350583572,"Approved","OW502"
"2023-05-19 15:00",2.79028799823827,"Approved","OW502"
"2023-05-19 16:00",2.78999249064083,"Approved","OW502"
"2023-05-19 17:00",2.78979698304338,"Approved","OW502"
"2023-05-19 18:00",2.78780147544594,"Approved","OW502"
"2023-05-19 19:00",2.78890596784849,"Approved","OW502"
"2023-05-19 20:00",2.79151046025105,"Approved","OW502"
"2023-05-19 21:00",2.7942149526536,"Approved","OW502"
"2023-05-19 22:00",2.79421944505616,"Approved","OW502"
"2023-05-19 23:00",2.79732393745871,"Approved","OW502"
"2023-05-20 00:00",2.79712842986126,"Approved","OW502"
"2023-05-20 01:00",2.79823292226382,"Approved","OW502"
"2023-05-20 02:00",2.79783741466637,"Approved","OW502"
"2023-05-20 03:00",2.79834190706893,"Approved","OW502"
"2023-05-20 04:00",2.79904639947148,"Approved","OW502"
"2023-05-20 05:00",2.80005089187404,"Approved","OW502"
"2023-05-20 06:00",2.80035538427659,"Approved","OW502"
"2023-05-20 07:00",2.80105987667915,"Approved","OW502"
"2023-05-20 08:00",2.7986643690817,"Approved","OW502"
"2023-05-20 09:00",2.80056886148425,"Approved","OW502"
"2023-05-20 10:00",2.79897335388681,"Approved","OW502"
"2023-05-20 11:00",2.79437784628936,"Approved","OW502"
"2023-05-20 12:00",2.79368233869192,"Approved","OW502"
"2023-05-20 13:00",2.79368683109447,"Approved","OW502"
"2023-05-20 14:00",2.79309132349703,"Approved","OW502"
"2023-05-20 15:00",2.79219581589958,"Approved","OW502"
"2023-05-20 16:00",2.79310030830214,"Approved","OW502"
"2023-05-20 17:00",2.78940480070469,"Approved","OW502"
"2023-05-20 18:00",2.79150929310725,"Approved","OW502"
"2023-05-20 19:00",2.7905137855098,"Approved","OW502"
"2023-05-20 20:00",2.79121827791235,"Approved","OW502"
"2023-05-20 21:00",2.79672277031491,"Approved","OW502"
"2023-05-20 22:00",2.79572726271746,"Approved","OW502"
"2023-05-20 23:00",2.79753175512002,"Approved","OW502"
"2023-05-21 00:00",2.79863624752257,"Approved","OW502"
"2023-05-21 01:00",2.79984073992513,"Approved","OW502"
"2023-05-21 02:00",2.79934523232768,"Approved","OW502"
"2023-05-21 03:00",2.79844972473024,"Approved","OW502"
"2023-05-21 04:00",2.80205421713279,"Approved","OW502"
"2023-05-21 05:00",2.80305870953534,"Approved","OW502"
"2023-05-21 06:00",2.8026632019379,"Approved","OW502"
"2023-05-21 07:00",2.80336769434045,"Approved","OW502"
"2023-05-21 08:00",2.80387218674301,"Approved","OW502"
"2023-05-21 09:00",2.80327667914556,"Approved","OW502"
"2023-05-21 10:00",2.80168117154812,"Approved","OW502"
"2023-05-21 11:00",2.79858566395067,"Approved","OW502"
"2023-05-21 12:00",2.80129015635323,"Approved","OW502"
"2023-05-21 13:00",2.80059464875578,"Approved","OW502"
"2023-05-21 14:00",2.80269914115833,"Approved","OW502"
"2023-05-21 15:00",2.80300363356089,"Approved","OW502"
"2023-05-21 16:00",2.80260812596344,"Approved","OW502"
"2023-05-21 17:00",2.798512618366,"Approved","OW502"
"2023-05-21 18:00",2.79911711076855,"Approved","OW502"
"2023-05-21 19:00",2.80052160317111,"Approved","OW502"
"2023-05-21 20:00",2.80222609557366,"Approved","OW502"
"2023-05-21 21:00",2.80153058797622,"Approved","OW502"
"2023-05-21 22:00",2.80053508037877,"Approved","OW502"
"2023-05-21 23:00",2.80023957278133,"Approved","OW502"
"2023-05-22 00:00",2.80104406518388,"Approved","OW502"
"2023-05-22 01:00",2.80254855758643,"Approved","OW502"
"2023-05-22 02:00",2.80225304998899,"Approved","OW502"
"2023-05-22 03:00",2.80105754239154,"Approved","OW502"
"2023-05-22 04:00",2.8025620347941,"Approved","OW502"
"2023-05-22 05:00",2.80186652719665,"Approved","OW502"
"2023-05-22 06:00",2.80177101959921,"Approved","OW502"
"2023-05-22 07:00",2.80107551200176,"Approved","OW502"
"2023-05-22 08:00",2.80078000440432,"Approved","OW502"
"2023-05-22 09:00",2.80138449680687,"Approved","OW502"
"2023-05-22 10:00",2.80298898920943,"Approved","OW502"
"2023-05-22 11:00",2.80299348161198,"Approved","OW502"
"2023-05-22 12:00",2.80229797401453,"Approved","OW502"
"2023-05-22 13:00",2.80140246641709,"Approved","OW502"
"2023-05-22 14:00",2.80140695881964,"Approved","OW502"
"2023-05-22 15:00",2.7989114512222,"Approved","OW502"
"2023-05-22 16:00",2.80051594362475,"Approved","OW502"
"2023-05-22 17:00",2.80022043602731,"Approved","OW502"
"2023-05-22 18:00",2.79962492842986,"Approved","OW502"
"2023-05-22 19:00",2.80082942083242,"Approved","OW502"
"2023-05-22 20:00",2.79823391323497,"Approved","OW502"
"2023-05-22 21:00",2.79883840563752,"Approved","OW502"
"2023-05-22 22:00",2.79924289804008,"Approved","OW502"
"2023-05-22 23:00",2.79814739044263,"Approved","OW502"
"2023-05-23 00:00",2.79675188284519,"Approved","OW502"
"2023-05-23 01:00",2.79425637524774,"Approved","OW502"
"2023-05-23 02:00",2.7934608676503,"Approved","OW502"
"2023-05-23 03:00",2.79306536005285,"Approved","OW502"
"2023-05-23 04:00",2.79136985245541,"Approved","OW502"
"2023-05-23 05:00",2.79067434485796,"Approved","OW502"
"2023-05-23 06:00",2.78787883726052,"Approved","OW502"
"2023-05-23 07:00",2.78718332966307,"Approved","OW502"
"2023-05-23 08:00",2.78628782206562,"Approved","OW502"
"2023-05-23 09:00",2.78529231446818,"Approved","OW502"
"2023-05-23 10:00",2.78569680687073,"Approved","OW502"
"2023-05-23 11:00",2.78430129927329,"Approved","OW502"
"2023-05-23 12:00",2.78450579167584,"Approved","OW502"
"2023-05-23 13:00",2.7851102840784,"Approved","OW502"
"2023-05-23 14:00",2.78481477648095,"Approved","OW502"
"2023-05-23 15:00",2.78341926888351,"Approved","OW502"
"2023-05-23 16:00",2.78282376128606,"Approved","OW502"
"2023-05-23 17:00",2.78072825368861,"Approved","OW502"
"2023-05-23 18:00",2.78083274609117,"Approved","OW502"
"2023-05-23 19:00",2.78283723849372,"Approved","OW502"
"2023-05-23 20:00",2.78074173089628,"Approved","OW502"
"2023-05-23 21:00",2.78054622329883,"Approved","OW502"
"2023-05-23 22:00",2.77965071570139,"Approved","OW502"
"2023-05-23 23:00",2.78035520810394,"Approved","OW502"
"2023-05-24 00:00",2.7789597005065,"Approved","OW502"
"2023-05-24 01:00",2.77906419290905,"Approved","OW502"
"2023-05-24 02:00",2.77936868531161,"Approved","OW502"
"2023-05-24 03:00",2.77917317771416,"Approved","OW502"
"2023-05-24 04:00",2.77817767011671,"Approved","OW502"
"2023-05-24 05:00",2.77978216251927,"Approved","OW502"
"2023-05-24 06:00",2.77908665492182,"Approved","OW502"
"2023-05-24 07:00",2.77969114732438,"Approved","OW502"
"2023-05-24 08:00",2.78029563972693,"Approved","OW502"
"2023-05-24 09:00",2.77930013212949,"Approved","OW502"
"2023-05-24 10:00",2.78030462453204,"Approved","OW502"
"2023-05-24 11:00",2.7787091169346,"Approved","OW502"
"2023-05-24 12:00",2.77841360933715,"Approved","OW502"
"2023-05-24 13:00",2.77791810173971,"Approved","OW502"
"2023-05-24 14:00",2.77912259414226,"Approved","OW502"
"2023-05-24 15:00",2.77942708654481,"Approved","OW502"
"2023-05-24 16:00",2.77963157894737,"Approved","OW502"
"2023-05-24 17:00",2.77683607134992,"Approved","OW502"
"2023-05-24 18:00",2.77514056375248,"Approved","OW502"
"2023-05-24 19:00",2.77874505615503,"Approved","OW502"